Time,TemperatureF,DewpointF,PressureIn,WindDirection,WindDirectionDegrees,WindSpeedMPH,WindSpeedGustMPH,Humidity,HourlyPrecipIn,Conditions,Clouds,dailyrainin,SoftwareType,DateUTC
2013-01-26 00:04:00,42.1,41.8,29.95,SSW,207,0.0,2.0,99,0.00,,,0.00,Wunderground v.1.15,2013-01-26 08:04:00,
2013-01-26 00:09:00,42.2,41.9,29.95,South,184,0.0,2.0,99,0.00,,,0.00,Wunderground v.1.15,2013-01-26 08:09:00,
2013-01-26 00:15:00,42.5,42.0,29.95,SE,137,1.0,2.0,98,0.00,,,0.00,Wunderground v.1.15,2013-01-26 08:15:00,
2013-01-26 00:21:00,42.7,42.2,29.94,SSW,209,1.0,1.0,98,0.00,,,0.00,Wunderground v.1.15,2013-01-26 08:21:00,
2013-01-26 00:27:00,42.9,42.4,29.95,SSW,209,0.0,1.0,98,0.00,,,0.00,Wunderground v.1.15,2013-01-26 08:27:00,
2013-01-26 00:32:00,43.1,42.3,29.95,SSW,209,0.0,2.0,97,0.00,,,0.01,Wunderground v.1.15,2013-01-26 08:32:00,
2013-01-26 00:38:00,43.1,42.3,29.96,WSW,252,0.0,4.0,97,0.19,,,0.03,Wunderground v.1.15,2013-01-26 08:38:00,
2013-01-26 00:44:00,42.9,42.1,29.96,ENE,75,1.0,2.0,97,0.15,,,0.04,Wunderground v.1.15,2013-01-26 08:44:00,
2013-01-26 00:49:00,42.8,42.0,29.96,ENE,75,1.0,2.0,97,0.07,,,0.04,Wunderground v.1.15,2013-01-26 08:49:00,
2013-01-26 00:55:00,42.7,41.9,29.95,ENE,75,1.0,1.0,97,0.04,,,0.04,Wunderground v.1.15,2013-01-26 08:55:00,
2013-01-26 01:00:00,42.5,41.7,29.94,NE,39,1.0,4.0,97,0.04,,,0.05,Wunderground v.1.15,2013-01-26 09:00:00,
2013-01-26 01:05:00,42.6,41.8,29.95,NE,36,2.0,4.0,97,0.04,,,0.05,Wunderground v.1.15,2013-01-26 09:05:00,
2013-01-26 01:11:00,42.7,41.9,29.96,NE,36,1.0,1.0,97,0.04,,,0.05,Wunderground v.1.15,2013-01-26 09:11:00,
2013-01-26 01:17:00,42.7,41.9,29.95,NE,36,1.0,2.0,97,0.00,,,0.05,Wunderground v.1.15,2013-01-26 09:17:00,
2013-01-26 01:23:00,42.7,41.9,29.95,NE,36,0.0,1.0,97,0.00,,,0.05,Wunderground v.1.15,2013-01-26 09:23:00,
2013-01-26 01:28:00,42.7,41.9,29.95,NE,36,0.0,1.0,97,0.00,,,0.05,Wunderground v.1.15,2013-01-26 09:28:00,
2013-01-26 01:34:00,42.7,41.9,29.95,NE,36,0.0,2.0,97,0.00,,,0.05,Wunderground v.1.15,2013-01-26 09:34:00,
2013-01-26 01:40:00,42.7,41.9,29.95,NE,36,0.0,0.0,97,0.00,,,0.05,Wunderground v.1.15,2013-01-26 09:40:00,
2013-01-26 01:46:00,42.7,41.9,29.95,NE,36,0.0,0.0,97,0.00,,,0.05,Wunderground v.1.15,2013-01-26 09:46:00,
2013-01-26 01:52:00,42.8,42.0,29.95,NE,36,0.0,0.0,97,0.00,,,0.05,Wunderground v.1.15,2013-01-26 09:52:00,
2013-01-26 01:58:00,42.9,42.4,29.95,ENE,57,0.0,0.0,98,0.00,,,0.05,Wunderground v.1.15,2013-01-26 09:58:00,
2013-01-26 02:04:00,42.9,42.4,29.95,ENE,57,0.0,0.0,98,0.00,,,0.05,Wunderground v.1.15,2013-01-26 10:04:00,
2013-01-26 02:10:00,42.9,42.1,29.95,ENE,57,0.0,1.0,97,0.00,,,0.05,Wunderground v.1.15,2013-01-26 10:10:00,
2013-01-26 02:16:00,42.9,42.1,29.95,ENE,57,0.0,1.0,97,0.00,,,0.05,Wunderground v.1.15,2013-01-26 10:16:00,
2013-01-26 02:22:00,43.0,42.5,29.95,ENE,57,0.0,0.0,98,0.00,,,0.05,Wunderground v.1.15,2013-01-26 10:22:00,
2013-01-26 02:28:00,43.1,42.6,29.95,SE,126,0.0,0.0,98,0.00,,,0.05,Wunderground v.1.15,2013-01-26 10:28:00,
2013-01-26 02:34:00,43.1,42.6,29.94,SE,126,0.0,1.0,98,0.00,,,0.05,Wunderground v.1.15,2013-01-26 10:34:00,
2013-01-26 02:40:00,43.2,42.7,29.94,SE,126,0.0,0.0,98,0.00,,,0.05,Wunderground v.1.15,2013-01-26 10:40:00,
2013-01-26 02:45:00,43.2,42.7,29.95,SE,134,0.0,1.0,98,1.06,,,0.07,Wunderground v.1.15,2013-01-26 10:45:00,
2013-01-26 02:50:00,43.3,42.5,29.96,West,274,3.0,6.0,97,0.19,,,0.09,Wunderground v.1.15,2013-01-26 10:50:00,
2013-01-26 02:56:00,43.3,42.5,29.95,West,269,4.0,6.0,97,0.07,,,0.09,Wunderground v.1.15,2013-01-26 10:56:00,
2013-01-26 03:02:00,43.3,42.2,29.95,West,269,2.0,2.0,96,0.04,,,0.09,Wunderground v.1.15,2013-01-26 11:02:00,
2013-01-26 03:07:00,43.3,42.2,29.95,West,269,0.0,2.0,96,0.00,,,0.09,Wunderground v.1.15,2013-01-26 11:07:00,
2013-01-26 03:13:00,43.2,42.4,29.95,West,269,0.0,0.0,97,0.00,,,0.09,Wunderground v.1.15,2013-01-26 11:13:00,
2013-01-26 03:19:00,43.1,42.3,29.95,West,269,0.0,1.0,97,0.00,,,0.09,Wunderground v.1.15,2013-01-26 11:19:00,
2013-01-26 03:24:00,43.0,42.2,29.95,West,269,0.0,0.0,97,0.00,,,0.10,Wunderground v.1.15,2013-01-26 11:24:00,
2013-01-26 03:30:00,42.9,42.1,29.95,West,269,0.0,0.0,97,0.00,,,0.10,Wunderground v.1.15,2013-01-26 11:30:00,
2013-01-26 03:36:00,42.9,42.1,29.95,West,269,0.0,0.0,97,0.05,,,0.11,Wunderground v.1.15,2013-01-26 11:36:00,
2013-01-26 03:42:00,42.8,42.0,29.95,West,269,0.0,0.0,97,0.05,,,0.11,Wunderground v.1.15,2013-01-26 11:42:00,
2013-01-26 03:48:00,42.8,42.3,29.95,West,269,0.0,0.0,98,0.00,,,0.11,Wunderground v.1.15,2013-01-26 11:48:00,
2013-01-26 03:54:00,42.8,42.3,29.95,West,269,0.0,0.0,98,0.00,,,0.11,Wunderground v.1.15,2013-01-26 11:54:00,
2013-01-26 04:00:00,42.8,42.3,29.95,West,269,0.0,0.0,98,0.00,,,0.11,Wunderground v.1.15,2013-01-26 12:00:00,
2013-01-26 04:05:00,42.7,42.2,29.95,West,269,0.0,0.0,98,0.00,,,0.11,Wunderground v.1.15,2013-01-26 12:05:00,
2013-01-26 04:11:00,42.5,42.0,29.95,West,269,0.0,0.0,98,0.00,,,0.11,Wunderground v.1.15,2013-01-26 12:11:00,
2013-01-26 04:17:00,42.4,41.9,29.95,West,269,0.0,0.0,98,0.00,,,0.11,Wunderground v.1.15,2013-01-26 12:17:00,
2013-01-26 04:23:00,42.2,41.7,29.95,West,269,0.0,0.0,98,0.00,,,0.11,Wunderground v.1.15,2013-01-26 12:23:00,
2013-01-26 04:29:00,42.0,41.2,29.95,West,269,0.0,0.0,97,0.00,,,0.11,Wunderground v.1.15,2013-01-26 12:29:00,
2013-01-26 04:35:00,41.8,41.0,29.95,West,269,0.0,0.0,97,0.00,,,0.11,Wunderground v.1.15,2013-01-26 12:35:00,
2013-01-26 04:41:00,41.6,40.8,29.95,West,269,0.0,0.0,97,0.00,,,0.11,Wunderground v.1.15,2013-01-26 12:41:00,
2013-01-26 04:47:00,41.3,40.5,29.95,West,269,0.0,0.0,97,0.00,,,0.11,Wunderground v.1.15,2013-01-26 12:47:00,
2013-01-26 04:52:00,41.1,40.3,29.95,West,269,0.0,0.0,97,0.00,,,0.11,Wunderground v.1.15,2013-01-26 12:52:00,
2013-01-26 04:57:00,41.2,40.7,29.95,West,269,0.0,0.0,98,0.00,,,0.11,Wunderground v.1.15,2013-01-26 12:57:00,
2013-01-26 05:02:00,41.2,40.7,29.95,West,269,0.0,0.0,98,0.00,,,0.11,Wunderground v.1.15,2013-01-26 13:02:00,
2013-01-26 05:07:00,41.1,40.6,29.95,West,269,0.0,0.0,98,0.00,,,0.11,Wunderground v.1.15,2013-01-26 13:07:00,
2013-01-26 05:13:00,41.0,40.5,29.95,West,269,0.0,0.0,98,0.00,,,0.11,Wunderground v.1.15,2013-01-26 13:13:00,
2013-01-26 05:19:00,40.9,40.4,29.95,West,269,0.0,0.0,98,0.00,,,0.11,Wunderground v.1.15,2013-01-26 13:19:00,
2013-01-26 05:25:00,40.8,40.3,29.95,NE,56,0.0,3.0,98,0.00,,,0.12,Wunderground v.1.15,2013-01-26 13:25:00,
2013-01-26 05:31:00,41.1,40.6,29.95,West,275,1.0,5.0,98,0.00,,,0.12,Wunderground v.1.15,2013-01-26 13:31:00,
2013-01-26 05:37:00,41.5,41.0,29.95,West,280,2.0,5.0,98,0.00,,,0.12,Wunderground v.1.15,2013-01-26 13:37:00,
2013-01-26 05:43:00,41.6,41.1,29.95,West,280,0.0,2.0,98,0.00,,,0.12,Wunderground v.1.15,2013-01-26 13:43:00,
2013-01-26 05:49:00,41.7,41.2,29.96,South,182,0.0,2.0,98,0.00,,,0.12,Wunderground v.1.15,2013-01-26 13:49:00,
2013-01-26 05:55:00,41.6,41.1,29.95,South,182,0.0,0.0,98,0.00,,,0.12,Wunderground v.1.15,2013-01-26 13:55:00,
2013-01-26 06:01:00,41.5,41.0,29.96,South,182,0.0,0.0,98,0.00,,,0.12,Wunderground v.1.15,2013-01-26 14:01:00,
2013-01-26 06:07:00,41.4,40.9,29.95,South,182,0.0,0.0,98,0.00,,,0.12,Wunderground v.1.15,2013-01-26 14:07:00,
2013-01-26 06:13:00,41.1,40.6,29.95,South,182,0.0,0.0,98,0.00,,,0.12,Wunderground v.1.15,2013-01-26 14:13:00,
2013-01-26 06:19:00,40.8,40.3,29.95,South,182,0.0,0.0,98,0.00,,,0.12,Wunderground v.1.15,2013-01-26 14:19:00,
2013-01-26 06:25:00,40.6,40.1,29.95,South,182,0.0,0.0,98,0.00,,,0.12,Wunderground v.1.15,2013-01-26 14:25:00,
2013-01-26 06:30:00,40.5,40.0,29.95,South,182,0.0,0.0,98,0.00,,,0.12,Wunderground v.1.15,2013-01-26 14:30:00,
2013-01-26 06:36:00,40.4,39.9,29.95,South,182,0.0,0.0,98,0.00,,,0.13,Wunderground v.1.15,2013-01-26 14:36:00,
2013-01-26 06:42:00,40.4,39.9,29.95,South,182,0.0,1.0,98,0.00,,,0.13,Wunderground v.1.15,2013-01-26 14:42:00,
2013-01-26 06:48:00,40.4,39.9,29.96,South,182,1.0,1.0,98,0.00,,,0.13,Wunderground v.1.15,2013-01-26 14:48:00,
2013-01-26 06:54:00,40.4,39.9,29.96,South,182,0.0,2.0,98,0.00,,,0.13,Wunderground v.1.15,2013-01-26 14:54:00,
2013-01-26 07:00:00,40.4,39.9,29.96,South,182,0.0,0.0,98,0.00,,,0.13,Wunderground v.1.15,2013-01-26 15:00:00,
2013-01-26 07:05:00,40.4,39.9,29.96,South,182,0.0,0.0,98,0.00,,,0.13,Wunderground v.1.15,2013-01-26 15:05:00,
2013-01-26 07:11:00,40.4,39.9,29.96,South,182,0.0,0.0,98,0.00,,,0.13,Wunderground v.1.15,2013-01-26 15:11:00,
2013-01-26 07:17:00,40.3,39.8,29.96,South,182,0.0,0.0,98,0.00,,,0.13,Wunderground v.1.15,2013-01-26 15:17:00,
2013-01-26 07:23:00,40.3,39.8,29.96,South,182,0.0,0.0,98,0.00,,,0.13,Wunderground v.1.15,2013-01-26 15:23:00,
2013-01-26 07:29:00,40.4,40.1,29.97,South,182,0.0,0.0,99,0.00,,,0.13,Wunderground v.1.15,2013-01-26 15:29:00,
2013-01-26 07:35:00,40.4,40.1,29.96,South,182,0.0,0.0,99,0.00,,,0.13,Wunderground v.1.15,2013-01-26 15:35:00,
2013-01-26 07:41:00,40.5,40.2,29.97,South,182,0.0,0.0,99,0.00,,,0.14,Wunderground v.1.15,2013-01-26 15:41:00,
2013-01-26 07:47:00,40.7,40.4,29.97,South,182,0.0,1.0,99,0.00,,,0.14,Wunderground v.1.15,2013-01-26 15:47:00,
2013-01-26 07:53:00,40.8,40.5,29.97,South,182,0.0,0.0,99,0.00,,,0.14,Wunderground v.1.15,2013-01-26 15:53:00,
2013-01-26 07:59:00,40.7,40.4,29.97,South,182,0.0,0.0,99,0.00,,,0.14,Wunderground v.1.15,2013-01-26 15:59:00,
2013-01-26 08:05:00,40.6,40.3,29.97,South,182,0.0,0.0,99,0.00,,,0.14,Wunderground v.1.15,2013-01-26 16:05:00,
2013-01-26 08:11:00,40.6,40.1,29.97,South,182,0.0,0.0,98,0.00,,,0.14,Wunderground v.1.15,2013-01-26 16:11:00,
2013-01-26 08:16:00,40.6,40.1,29.97,South,182,0.0,0.0,98,0.00,,,0.14,Wunderground v.1.15,2013-01-26 16:16:00,
2013-01-26 08:21:00,40.7,40.4,29.97,South,182,0.0,0.0,99,0.00,,,0.14,Wunderground v.1.15,2013-01-26 16:21:00,
2013-01-26 08:27:00,40.8,40.5,29.98,South,182,0.0,0.0,99,0.00,,,0.14,Wunderground v.1.15,2013-01-26 16:27:00,
2013-01-26 08:33:00,40.9,40.6,29.98,South,182,0.0,0.0,99,0.00,,,0.15,Wunderground v.1.15,2013-01-26 16:33:00,
2013-01-26 08:39:00,41.1,40.8,29.98,South,182,0.0,1.0,99,0.00,,,0.15,Wunderground v.1.15,2013-01-26 16:39:00,
2013-01-26 08:45:00,41.3,41.0,29.99,South,182,0.0,1.0,99,0.00,,,0.15,Wunderground v.1.15,2013-01-26 16:45:00,
2013-01-26 08:51:00,41.3,41.0,29.98,South,182,0.0,1.0,99,0.04,,,0.16,Wunderground v.1.15,2013-01-26 16:51:00,
2013-01-26 08:56:00,41.3,41.0,29.98,East,87,1.0,2.0,99,0.15,,,0.17,Wunderground v.1.15,2013-01-26 16:56:00,
2013-01-26 09:02:00,41.3,41.0,29.98,East,87,0.0,1.0,99,0.07,,,0.18,Wunderground v.1.15,2013-01-26 17:02:00,
2013-01-26 09:08:00,41.4,41.1,29.98,East,87,0.0,1.0,99,0.07,,,0.18,Wunderground v.1.15,2013-01-26 17:08:00,
2013-01-26 09:14:00,41.4,41.1,29.98,East,87,0.0,0.0,99,0.05,,,0.18,Wunderground v.1.15,2013-01-26 17:14:00,
2013-01-26 09:20:00,41.5,41.2,29.98,East,87,0.0,0.0,99,0.00,,,0.18,Wunderground v.1.15,2013-01-26 17:20:00,
2013-01-26 09:26:00,41.5,41.2,29.98,East,87,0.0,0.0,99,0.00,,,0.18,Wunderground v.1.15,2013-01-26 17:26:00,
2013-01-26 09:31:00,41.6,41.3,29.98,East,87,0.0,0.0,99,0.00,,,0.18,Wunderground v.1.15,2013-01-26 17:31:00,
2013-01-26 09:36:00,41.6,41.3,29.98,East,87,0.0,0.0,99,0.00,,,0.18,Wunderground v.1.15,2013-01-26 17:36:00,
2013-01-26 09:41:00,41.6,41.3,29.99,East,87,0.0,0.0,99,0.00,,,0.18,Wunderground v.1.15,2013-01-26 17:41:00,
2013-01-26 09:46:00,41.6,41.3,29.99,East,87,0.0,0.0,99,0.00,,,0.18,Wunderground v.1.15,2013-01-26 17:46:00,
2013-01-26 09:52:00,41.5,41.2,29.99,East,87,0.0,0.0,99,0.00,,,0.18,Wunderground v.1.15,2013-01-26 17:52:00,
2013-01-26 09:58:00,41.5,41.2,29.99,East,87,0.0,0.0,99,0.00,,,0.18,Wunderground v.1.15,2013-01-26 17:58:00,
2013-01-26 10:03:00,41.8,41.5,29.99,East,87,0.0,0.0,99,0.00,,,0.18,Wunderground v.1.15,2013-01-26 18:03:00,
2013-01-26 10:08:00,42.3,42.0,29.99,East,87,0.0,0.0,99,0.00,,,0.18,Wunderground v.1.15,2013-01-26 18:08:00,
2013-01-26 10:14:00,42.4,42.1,29.99,East,87,0.0,0.0,99,0.00,,,0.18,Wunderground v.1.15,2013-01-26 18:14:00,
2013-01-26 10:19:00,42.6,42.3,29.99,East,87,0.0,0.0,99,0.00,,,0.18,Wunderground v.1.15,2013-01-26 18:19:00,
2013-01-26 10:24:00,42.6,42.3,29.99,ENE,67,0.0,0.0,99,0.00,,,0.18,Wunderground v.1.15,2013-01-26 18:24:00,
2013-01-26 10:30:00,42.6,42.3,29.99,SE,146,0.0,0.0,99,0.00,,,0.18,Wunderground v.1.15,2013-01-26 18:30:00,
2013-01-26 10:36:00,42.6,42.3,29.99,SE,140,0.0,1.0,99,0.00,,,0.18,Wunderground v.1.15,2013-01-26 18:36:00,
2013-01-26 10:41:00,42.7,42.2,29.99,SSE,155,0.0,0.0,98,0.00,,,0.18,Wunderground v.1.15,2013-01-26 18:41:00,
2013-01-26 10:47:00,42.8,42.3,29.99,SSE,156,0.0,0.0,98,0.00,,,0.19,Wunderground v.1.15,2013-01-26 18:47:00,
2013-01-26 10:53:00,42.8,42.3,30.00,NE,34,0.0,2.0,98,0.00,,,0.19,Wunderground v.1.15,2013-01-26 18:53:00,
2013-01-26 10:58:00,42.9,42.4,30.00,West,274,1.0,4.0,98,0.07,,,0.20,Wunderground v.1.15,2013-01-26 18:58:00,
2013-01-26 11:03:00,42.8,42.3,29.99,East,86,1.0,2.0,98,0.07,,,0.20,Wunderground v.1.15,2013-01-26 19:03:00,
2013-01-26 11:08:00,42.7,42.2,29.99,East,86,0.0,2.0,98,0.05,,,0.20,Wunderground v.1.15,2013-01-26 19:08:00,
2013-01-26 11:13:00,42.9,42.4,29.99,East,86,0.0,0.0,98,0.00,,,0.20,Wunderground v.1.15,2013-01-26 19:13:00,
2013-01-26 11:18:00,43.2,42.7,29.99,East,86,0.0,1.0,98,0.00,,,0.20,Wunderground v.1.15,2013-01-26 19:18:00,
2013-01-26 11:24:00,43.3,42.8,29.99,East,86,0.0,0.0,98,0.00,,,0.20,Wunderground v.1.15,2013-01-26 19:24:00,
2013-01-26 11:29:00,43.3,42.8,30.00,East,86,0.0,0.0,98,0.00,,,0.20,Wunderground v.1.15,2013-01-26 19:29:00,
2013-01-26 11:35:00,43.4,42.9,29.99,East,86,0.0,0.0,98,0.00,,,0.20,Wunderground v.1.15,2013-01-26 19:35:00,
2013-01-26 11:40:00,43.3,42.8,29.99,SSE,167,0.0,0.0,98,0.00,,,0.21,Wunderground v.1.15,2013-01-26 19:40:00,
2013-01-26 11:45:00,43.3,42.5,29.99,SSE,167,0.0,0.0,97,0.00,,,0.21,Wunderground v.1.15,2013-01-26 19:45:00,
2013-01-26 11:51:00,43.1,42.3,29.99,SSE,166,0.0,0.0,97,0.18,,,0.23,Wunderground v.1.15,2013-01-26 19:51:00,
2013-01-26 11:56:00,43.1,42.3,29.99,SSE,166,0.0,0.0,97,0.08,,,0.23,Wunderground v.1.15,2013-01-26 19:56:00,
2013-01-26 12:02:00,43.8,43.3,29.99,SSE,166,0.0,0.0,98,0.05,,,0.23,Wunderground v.1.15,2013-01-26 20:02:00,
2013-01-26 12:07:00,44.3,43.5,29.99,SSE,155,0.0,1.0,97,0.00,,,0.23,Wunderground v.1.15,2013-01-26 20:07:00,
2013-01-26 12:13:00,44.9,44.1,29.98,SSE,155,0.0,0.0,97,0.00,,,0.23,Wunderground v.1.15,2013-01-26 20:13:00,
2013-01-26 12:18:00,45.1,44.0,29.98,SSE,155,0.0,0.0,96,0.00,,,0.23,Wunderground v.1.15,2013-01-26 20:18:00,
2013-01-26 12:24:00,45.2,44.1,29.98,SSE,155,0.0,0.0,96,0.00,,,0.24,Wunderground v.1.15,2013-01-26 20:24:00,
2013-01-26 12:29:00,45.1,43.8,29.98,SSE,155,0.0,0.0,95,0.00,,,0.24,Wunderground v.1.15,2013-01-26 20:29:00,
2013-01-26 12:35:00,44.9,43.3,29.98,SSE,155,0.0,0.0,94,0.00,,,0.24,Wunderground v.1.15,2013-01-26 20:35:00,
2013-01-26 12:40:00,44.8,43.5,29.98,WSW,237,0.0,0.0,95,0.00,,,0.24,Wunderground v.1.15,2013-01-26 20:40:00,
2013-01-26 12:46:00,45.2,43.9,29.98,WSW,237,0.0,1.0,95,0.00,,,0.24,Wunderground v.1.15,2013-01-26 20:46:00,
2013-01-26 12:51:00,45.6,44.5,29.98,WSW,237,0.0,0.0,96,0.00,,,0.24,Wunderground v.1.15,2013-01-26 20:51:00,
2013-01-26 12:56:00,46.3,45.2,29.98,WSW,237,0.0,0.0,96,0.00,,,0.24,Wunderground v.1.15,2013-01-26 20:56:00,
2013-01-26 13:01:00,46.7,45.3,29.98,WSW,237,0.0,0.0,95,0.00,,,0.24,Wunderground v.1.15,2013-01-26 21:01:00,
2013-01-26 13:06:00,46.4,43.9,29.97,West,269,1.0,4.0,91,0.00,,,0.24,Wunderground v.1.15,2013-01-26 21:06:00,
2013-01-26 13:12:00,46.1,43.3,29.97,West,273,2.0,2.0,90,0.00,,,0.24,Wunderground v.1.15,2013-01-26 21:12:00,
2013-01-26 13:18:00,46.3,42.9,29.97,West,272,2.0,3.0,88,0.00,,,0.24,Wunderground v.1.15,2013-01-26 21:18:00,
2013-01-26 13:24:00,47.3,43.9,29.97,West,275,2.0,5.0,88,0.00,,,0.24,Wunderground v.1.15,2013-01-26 21:24:00,
2013-01-26 13:29:00,47.7,43.7,29.97,WNW,290,2.0,5.0,86,0.00,,,0.24,Wunderground v.1.15,2013-01-26 21:29:00,
2013-01-26 13:35:00,48.2,43.6,29.97,West,261,2.0,4.0,84,0.00,,,0.24,Wunderground v.1.15,2013-01-26 21:35:00,
2013-01-26 13:40:00,48.1,43.2,29.96,WNW,286,3.0,3.0,83,0.00,,,0.24,Wunderground v.1.15,2013-01-26 21:40:00,
2013-01-26 13:45:00,47.5,43.2,29.97,West,281,3.0,9.0,85,0.00,,,0.24,Wunderground v.1.15,2013-01-26 21:45:00,
2013-01-26 13:51:00,45.0,41.1,29.97,West,272,5.0,5.0,86,0.00,,,0.25,Wunderground v.1.15,2013-01-26 21:51:00,
2013-01-26 13:57:00,43.8,41.1,29.98,West,273,3.0,5.0,90,0.00,,,0.25,Wunderground v.1.15,2013-01-26 21:57:00,
2013-01-26 14:03:00,43.6,41.4,29.97,West,275,0.0,1.0,92,0.00,,,0.25,Wunderground v.1.15,2013-01-26 22:03:00,
2013-01-26 14:08:00,43.6,42.0,29.97,West,275,0.0,1.0,94,0.00,,,0.25,Wunderground v.1.15,2013-01-26 22:08:00,
2013-01-26 14:14:00,43.5,41.9,29.98,North,10,0.0,3.0,94,0.22,,,0.27,Wunderground v.1.15,2013-01-26 22:14:00,
2013-01-26 14:20:00,43.2,41.6,29.98,North,10,1.0,1.0,94,0.07,,,0.27,Wunderground v.1.15,2013-01-26 22:20:00,
2013-01-26 14:26:00,43.3,42.0,29.98,WNW,302,0.0,1.0,95,0.04,,,0.28,Wunderground v.1.15,2013-01-26 22:26:00,
2013-01-26 14:32:00,43.7,42.4,29.98,WSW,252,0.0,2.0,95,0.10,,,0.29,Wunderground v.1.15,2013-01-26 22:32:00,
2013-01-26 14:37:00,43.8,41.9,29.98,NW,313,1.0,2.0,93,0.10,,,0.29,Wunderground v.1.15,2013-01-26 22:37:00,
2013-01-26 14:42:00,43.9,42.3,29.98,NW,313,0.0,1.0,94,0.06,,,0.29,Wunderground v.1.15,2013-01-26 22:42:00,
2013-01-26 14:48:00,44.0,42.4,29.98,NW,313,0.0,1.0,94,0.04,,,0.29,Wunderground v.1.15,2013-01-26 22:48:00,
2013-01-26 14:54:00,44.0,42.4,29.98,NW,313,0.0,0.0,94,0.00,,,0.29,Wunderground v.1.15,2013-01-26 22:54:00,
2013-01-26 14:59:00,44.0,42.7,29.98,NW,313,0.0,0.0,95,0.00,,,0.29,Wunderground v.1.15,2013-01-26 22:59:00,
2013-01-26 15:05:00,43.8,42.5,29.98,NW,313,0.0,0.0,95,0.00,,,0.29,Wunderground v.1.15,2013-01-26 23:05:00,
2013-01-26 15:10:00,43.8,42.5,29.99,NW,313,0.0,0.0,95,0.00,,,0.29,Wunderground v.1.15,2013-01-26 23:10:00,
2013-01-26 15:16:00,43.7,42.4,29.99,NW,313,0.0,0.0,95,0.00,,,0.29,Wunderground v.1.15,2013-01-26 23:16:00,
2013-01-26 15:22:00,43.8,42.7,29.99,NW,313,0.0,0.0,96,0.00,,,0.29,Wunderground v.1.15,2013-01-26 23:22:00,
2013-01-26 15:27:00,44.2,43.1,29.99,NW,313,0.0,1.0,96,0.00,,,0.29,Wunderground v.1.15,2013-01-26 23:27:00,
2013-01-26 15:33:00,44.3,42.7,29.99,NW,313,0.0,2.0,94,0.00,,,0.29,Wunderground v.1.15,2013-01-26 23:33:00,
2013-01-26 15:39:00,44.5,42.6,29.99,NW,313,0.0,2.0,93,0.00,,,0.29,Wunderground v.1.15,2013-01-26 23:39:00,
2013-01-26 15:45:00,44.4,42.2,29.99,NW,313,0.0,1.0,92,0.00,,,0.29,Wunderground v.1.15,2013-01-26 23:45:00,
2013-01-26 15:51:00,44.5,42.6,29.99,NW,313,0.0,0.0,93,0.00,,,0.29,Wunderground v.1.15,2013-01-26 23:51:00,
2013-01-26 15:57:00,44.5,42.9,29.99,NW,313,0.0,0.0,94,0.00,,,0.29,Wunderground v.1.15,2013-01-26 23:57:00,
2013-01-26 16:03:00,44.5,42.9,29.99,NW,313,0.0,0.0,94,0.00,,,0.29,Wunderground v.1.15,2013-01-27 00:03:00,
2013-01-26 16:09:00,44.4,42.8,29.99,NW,313,0.0,0.0,94,0.00,,,0.29,Wunderground v.1.15,2013-01-27 00:09:00,
2013-01-26 16:14:00,44.3,42.7,29.99,NW,313,0.0,0.0,94,0.00,,,0.29,Wunderground v.1.15,2013-01-27 00:14:00,
2013-01-26 16:20:00,44.1,42.5,29.99,NW,313,0.0,0.0,94,0.00,,,0.29,Wunderground v.1.15,2013-01-27 00:20:00,
2013-01-26 16:25:00,44.0,42.7,29.99,NW,313,0.0,0.0,95,0.00,,,0.29,Wunderground v.1.15,2013-01-27 00:25:00,
2013-01-26 16:30:00,43.9,42.6,29.99,NW,313,0.0,0.0,95,0.00,,,0.30,Wunderground v.1.15,2013-01-27 00:30:00,
2013-01-26 16:36:00,43.7,42.4,29.99,NW,313,0.0,0.0,95,0.00,,,0.30,Wunderground v.1.15,2013-01-27 00:36:00,
2013-01-26 16:41:00,43.6,42.3,29.99,NW,313,0.0,0.0,95,0.00,,,0.30,Wunderground v.1.15,2013-01-27 00:41:00,
2013-01-26 16:47:00,43.4,42.1,30.00,NW,313,0.0,0.0,95,0.00,,,0.30,Wunderground v.1.15,2013-01-27 00:47:00,
2013-01-26 16:52:00,43.2,42.1,30.00,NW,313,0.0,0.0,96,0.00,,,0.30,Wunderground v.1.15,2013-01-27 00:52:00,
2013-01-26 16:58:00,43.1,42.0,30.00,NW,313,0.0,0.0,96,0.00,,,0.30,Wunderground v.1.15,2013-01-27 00:58:00,
2013-01-26 17:03:00,43.1,42.0,30.00,NW,313,0.0,0.0,96,0.00,,,0.30,Wunderground v.1.15,2013-01-27 01:03:00,
2013-01-26 17:09:00,43.0,41.9,30.00,NW,313,0.0,0.0,96,0.00,,,0.30,Wunderground v.1.15,2013-01-27 01:09:00,
2013-01-26 17:14:00,43.0,42.2,30.00,NW,313,0.0,0.0,97,0.00,,,0.30,Wunderground v.1.15,2013-01-27 01:14:00,
2013-01-26 17:20:00,42.8,42.0,30.01,NW,313,0.0,0.0,97,0.00,,,0.30,Wunderground v.1.15,2013-01-27 01:20:00,
2013-01-26 17:26:00,42.7,41.6,30.01,NW,313,0.0,0.0,96,0.00,,,0.30,Wunderground v.1.15,2013-01-27 01:26:00,
2013-01-26 17:32:00,42.6,41.5,30.01,NW,313,0.0,0.0,96,0.00,,,0.30,Wunderground v.1.15,2013-01-27 01:32:00,
2013-01-26 17:37:00,42.5,41.7,30.01,NW,313,0.0,0.0,97,0.00,,,0.30,Wunderground v.1.15,2013-01-27 01:37:00,
2013-01-26 17:43:00,42.4,41.6,30.01,NW,313,0.0,0.0,97,0.00,,,0.31,Wunderground v.1.15,2013-01-27 01:43:00,
2013-01-26 17:49:00,42.3,41.5,30.02,NW,313,0.0,0.0,97,0.09,,,0.32,Wunderground v.1.15,2013-01-27 01:49:00,
2013-01-26 17:54:00,42.2,41.4,30.02,NW,313,0.0,1.0,97,0.11,,,0.33,Wunderground v.1.15,2013-01-27 01:54:00,
2013-01-26 18:00:00,42.1,41.3,30.02,NW,313,0.0,0.0,97,0.17,,,0.35,Wunderground v.1.15,2013-01-27 02:00:00,
2013-01-26 18:06:00,42.1,41.3,30.02,NW,313,0.0,0.0,97,0.06,,,0.35,Wunderground v.1.15,2013-01-27 02:06:00,
2013-01-26 18:12:00,42.1,41.3,30.02,NW,313,0.0,0.0,97,0.04,,,0.35,Wunderground v.1.15,2013-01-27 02:12:00,
2013-01-26 18:17:00,42.1,41.3,30.02,NW,313,0.0,0.0,97,0.00,,,0.35,Wunderground v.1.15,2013-01-27 02:17:00,
2013-01-26 18:22:00,42.0,41.2,30.02,NW,313,0.0,0.0,97,0.00,,,0.35,Wunderground v.1.15,2013-01-27 02:22:00,
2013-01-26 18:27:00,41.9,41.1,30.03,NW,313,0.0,1.0,97,0.00,,,0.36,Wunderground v.1.15,2013-01-27 02:27:00,
2013-01-26 18:33:00,41.9,41.1,30.03,WSW,251,1.0,2.0,97,0.19,,,0.38,Wunderground v.1.15,2013-01-27 02:33:00,
2013-01-26 18:38:00,41.8,41.0,30.03,WSW,251,1.0,2.0,97,0.07,,,0.38,Wunderground v.1.15,2013-01-27 02:38:00,
2013-01-26 18:44:00,41.7,41.2,30.03,WSW,251,0.0,1.0,98,0.04,,,0.38,Wunderground v.1.15,2013-01-27 02:44:00,
2013-01-26 18:49:00,41.6,41.1,30.03,WSW,251,0.0,1.0,98,0.00,,,0.38,Wunderground v.1.15,2013-01-27 02:49:00,
2013-01-26 18:55:00,41.6,41.1,30.03,WSW,251,0.0,0.0,98,0.00,,,0.38,Wunderground v.1.15,2013-01-27 02:55:00,
2013-01-26 19:01:00,41.5,41.0,30.03,WSW,251,0.0,0.0,98,0.00,,,0.38,Wunderground v.1.15,2013-01-27 03:01:00,
2013-01-26 19:06:00,41.4,40.6,30.04,WSW,251,0.0,0.0,97,0.00,,,0.38,Wunderground v.1.15,2013-01-27 03:06:00,
2013-01-26 19:12:00,41.3,40.5,30.04,WSW,251,0.0,0.0,97,0.00,,,0.38,Wunderground v.1.15,2013-01-27 03:12:00,
2013-01-26 19:17:00,41.2,40.7,30.04,WSW,251,0.0,0.0,98,0.00,,,0.38,Wunderground v.1.15,2013-01-27 03:17:00,
2013-01-26 19:23:00,41.1,40.6,30.04,WSW,251,0.0,0.0,98,0.00,,,0.38,Wunderground v.1.15,2013-01-27 03:23:00,
2013-01-26 19:28:00,41.0,40.2,30.04,WSW,251,0.0,0.0,97,0.00,,,0.38,Wunderground v.1.15,2013-01-27 03:28:00,
2013-01-26 19:33:00,40.9,40.4,30.05,WSW,251,0.0,0.0,98,0.00,,,0.38,Wunderground v.1.15,2013-01-27 03:33:00,
2013-01-26 19:38:00,40.8,40.0,30.05,WSW,251,0.0,0.0,97,0.00,,,0.38,Wunderground v.1.15,2013-01-27 03:38:00,
2013-01-26 19:44:00,40.7,40.2,30.05,WSW,251,0.0,0.0,98,0.00,,,0.38,Wunderground v.1.15,2013-01-27 03:44:00,
2013-01-26 19:49:00,40.6,40.1,30.05,WSW,251,0.0,0.0,98,0.00,,,0.38,Wunderground v.1.15,2013-01-27 03:49:00,
2013-01-26 19:55:00,40.4,39.9,30.05,WSW,251,0.0,0.0,98,0.00,,,0.38,Wunderground v.1.15,2013-01-27 03:55:00,
2013-01-26 20:00:00,40.2,39.4,30.05,WSW,251,0.0,0.0,97,0.00,,,0.38,Wunderground v.1.15,2013-01-27 04:00:00,
2013-01-26 20:05:00,40.0,39.2,30.05,WSW,251,0.0,0.0,97,0.00,,,0.38,Wunderground v.1.15,2013-01-27 04:05:00,
2013-01-26 20:10:00,39.8,39.0,30.05,WSW,251,0.0,0.0,97,0.00,,,0.38,Wunderground v.1.15,2013-01-27 04:10:00,
2013-01-26 20:16:00,39.6,38.8,30.05,WSW,251,0.0,0.0,97,0.00,,,0.38,Wunderground v.1.15,2013-01-27 04:16:00,
2013-01-26 20:22:00,39.5,38.7,30.06,WSW,251,0.0,0.0,97,0.00,,,0.38,Wunderground v.1.15,2013-01-27 04:22:00,
2013-01-26 20:27:00,39.3,38.8,30.06,WSW,251,0.0,0.0,98,0.00,,,0.38,Wunderground v.1.15,2013-01-27 04:27:00,
2013-01-26 20:33:00,39.2,38.7,30.06,WSW,251,0.0,0.0,98,0.00,,,0.38,Wunderground v.1.15,2013-01-27 04:33:00,
2013-01-26 20:39:00,39.2,38.7,30.06,WSW,251,0.0,0.0,98,0.00,,,0.39,Wunderground v.1.15,2013-01-27 04:39:00,
2013-01-26 20:44:00,39.1,38.6,30.06,WSW,251,0.0,0.0,98,0.09,,,0.40,Wunderground v.1.15,2013-01-27 04:44:00,
2013-01-26 20:50:00,39.2,38.7,30.06,WSW,251,0.0,0.0,98,0.09,,,0.41,Wunderground v.1.15,2013-01-27 04:50:00,
2013-01-26 20:56:00,39.3,38.8,30.06,WSW,251,0.0,2.0,98,0.11,,,0.42,Wunderground v.1.15,2013-01-27 04:56:00,
2013-01-26 21:00:00,39.4,38.9,30.06,North,355,0.0,0.0,98,0.09,,,0.42,Wunderground v.1.15,2013-01-27 05:00:00,
2013-01-26 21:01:00,39.4,38.9,30.06,North,355,0.0,2.0,98,0.08,,,0.42,Wunderground v.1.15,2013-01-27 05:01:00,
2013-01-26 21:06:00,39.5,39.0,30.06,North,11,1.0,2.0,98,0.05,,,0.42,Wunderground v.1.15,2013-01-27 05:06:00,
2013-01-26 21:08:00,39.5,39.0,30.06,North,11,1.0,2.0,98,0.04,,,0.42,Wunderground v.1.15,2013-01-27 05:08:00,
2013-01-26 21:14:00,39.5,39.0,30.06,North,11,0.0,1.0,98,0.00,,,0.42,Wunderground v.1.15,2013-01-27 05:14:00,
2013-01-26 21:19:00,39.5,39.0,30.06,North,11,0.0,1.0,98,0.00,,,0.42,Wunderground v.1.15,2013-01-27 05:19:00,
2013-01-26 21:25:00,39.5,39.0,30.07,North,11,0.0,0.0,98,0.00,,,0.42,Wunderground v.1.15,2013-01-27 05:25:00,
2013-01-26 21:31:00,39.5,39.0,30.07,North,11,0.0,0.0,98,0.00,,,0.42,Wunderground v.1.15,2013-01-27 05:31:00,
2013-01-26 21:37:00,39.4,38.9,30.07,North,11,0.0,0.0,98,0.00,,,0.42,Wunderground v.1.15,2013-01-27 05:37:00,
2013-01-26 21:43:00,39.4,38.9,30.07,North,11,0.0,0.0,98,0.00,,,0.42,Wunderground v.1.15,2013-01-27 05:43:00,
2013-01-26 21:49:00,39.2,38.7,30.07,North,11,0.0,0.0,98,0.00,,,0.42,Wunderground v.1.15,2013-01-27 05:49:00,
2013-01-26 21:55:00,39.0,38.5,30.08,North,11,0.0,0.0,98,0.00,,,0.42,Wunderground v.1.15,2013-01-27 05:55:00,
2013-01-26 22:01:00,38.8,38.3,30.08,North,11,0.0,0.0,98,0.00,,,0.42,Wunderground v.1.15,2013-01-27 06:01:00,
2013-01-26 22:06:00,38.8,38.3,30.08,North,11,0.0,0.0,98,0.00,,,0.42,Wunderground v.1.15,2013-01-27 06:06:00,
2013-01-26 22:12:00,38.8,38.3,30.08,North,11,0.0,0.0,98,0.00,,,0.42,Wunderground v.1.15,2013-01-27 06:12:00,
2013-01-26 22:18:00,38.8,38.3,30.08,North,11,0.0,0.0,98,0.00,,,0.42,Wunderground v.1.15,2013-01-27 06:18:00,
2013-01-26 22:23:00,38.8,38.3,30.08,North,11,0.0,0.0,98,0.00,,,0.42,Wunderground v.1.15,2013-01-27 06:23:00,
2013-01-26 22:29:00,38.6,38.1,30.08,North,11,0.0,0.0,98,0.00,,,0.42,Wunderground v.1.15,2013-01-27 06:29:00,
2013-01-26 22:34:00,38.5,38.0,30.08,North,11,0.0,0.0,98,0.00,,,0.42,Wunderground v.1.15,2013-01-27 06:34:00,
2013-01-26 22:39:00,38.4,37.9,30.09,North,11,0.0,0.0,98,0.00,,,0.42,Wunderground v.1.15,2013-01-27 06:39:00,
2013-01-26 22:44:00,38.3,37.8,30.09,North,11,0.0,0.0,98,0.00,,,0.42,Wunderground v.1.15,2013-01-27 06:44:00,
2013-01-26 22:50:00,38.3,37.8,30.09,North,11,0.0,0.0,98,0.00,,,0.42,Wunderground v.1.15,2013-01-27 06:50:00,
2013-01-26 22:56:00,38.2,37.7,30.10,North,11,0.0,0.0,98,0.00,,,0.42,Wunderground v.1.15,2013-01-27 06:56:00,
2013-01-26 23:01:00,38.2,37.7,30.10,North,11,0.0,0.0,98,0.00,,,0.42,Wunderground v.1.15,2013-01-27 07:01:00,
2013-01-26 23:06:00,38.3,37.8,30.10,North,11,0.0,0.0,98,0.00,,,0.42,Wunderground v.1.15,2013-01-27 07:06:00,
2013-01-26 23:13:00,38.4,37.9,30.10,North,11,0.0,0.0,98,0.00,,,0.42,Wunderground v.1.15,2013-01-27 07:13:00,
2013-01-26 23:19:00,38.5,38.0,30.10,North,11,0.0,1.0,98,0.00,,,0.42,Wunderground v.1.15,2013-01-27 07:19:00,
2013-01-26 23:25:00,38.5,38.0,30.10,North,11,0.0,0.0,98,0.00,,,0.43,Wunderground v.1.15,2013-01-27 07:25:00,
2013-01-26 23:31:00,38.5,38.0,30.11,West,275,1.0,3.0,98,0.10,,,0.44,Wunderground v.1.15,2013-01-27 07:31:00,
2013-01-26 23:36:00,38.7,38.4,30.11,West,274,2.0,3.0,99,0.19,,,0.45,Wunderground v.1.15,2013-01-27 07:36:00,
2013-01-26 23:41:00,39.0,38.7,30.11,West,273,2.0,2.0,99,0.08,,,0.46,Wunderground v.1.15,2013-01-27 07:41:00,
2013-01-26 23:47:00,39.0,38.7,30.11,West,273,0.0,2.0,99,0.08,,,0.46,Wunderground v.1.15,2013-01-27 07:47:00,
2013-01-26 23:53:00,39.0,38.7,30.11,West,273,0.0,0.0,99,0.05,,,0.46,Wunderground v.1.15,2013-01-27 07:53:00,
2013-01-26 23:58:00,39.1,38.8,30.11,West,273,0.0,0.0,99,0.00,,,0.46,Wunderground v.1.15,2013-01-27 07:58:00,